Time,TemperatureF,DewpointF,PressureIn,WindDirection,WindDirectionDegrees,WindSpeedMPH,WindSpeedGustMPH,Humidity,HourlyPrecipIn,Conditions,Clouds,dailyrainin,SoftwareType,DateUTC
2013-07-25 00:00:00,70.6,68.5,29.96,South,187,2.0,22.0,93,0.00,,,0.00,Wunderground v.1.15,2013-07-25 03:00:00,
2013-07-25 00:10:00,70.4,68.0,29.96,SE,145,1.0,22.0,92,0.00,,,0.00,Wunderground v.1.15,2013-07-25 03:10:00,
2013-07-25 00:20:00,70.3,68.2,29.97,SSW,204,1.0,22.0,93,0.00,,,0.00,Wunderground v.1.15,2013-07-25 03:20:00,
2013-07-25 00:30:00,70.1,68.0,29.97,South,185,2.0,22.0,93,0.00,,,0.00,Wunderground v.1.15,2013-07-25 03:30:00,
2013-07-25 00:40:00,70.0,67.9,29.98,SSW,203,2.0,22.0,93,0.00,,,0.00,Wunderground v.1.15,2013-07-25 03:40:00,
2013-07-25 00:50:00,69.8,67.7,29.98,SSW,207,3.0,22.0,93,0.00,,,0.00,Wunderground v.1.15,2013-07-25 03:50:00,
2013-07-25 01:00:00,69.9,67.5,29.99,SSW,210,4.0,4.0,92,0.00,,,0.00,Wunderground v.1.15,2013-07-25 04:00:00,
2013-07-25 01:10:00,69.8,67.1,29.96,SSW,208,3.0,22.0,91,0.00,,,0.00,Wunderground v.1.15,2013-07-25 04:10:00,
2013-07-25 01:20:00,69.7,67.0,29.99,South,191,3.0,3.0,91,0.00,,,0.00,Wunderground v.1.15,2013-07-25 04:20:00,
2013-07-25 01:30:00,69.4,66.7,29.99,South,174,2.0,22.0,91,0.00,,,0.00,Wunderground v.1.15,2013-07-25 04:30:00,
2013-07-25 01:40:00,69.0,66.3,30.00,SSW,195,2.0,22.0,91,0.00,,,0.00,Wunderground v.1.15,2013-07-25 04:40:00,
2013-07-25 01:50:00,68.8,66.1,30.00,SSE,160,2.0,2.0,91,0.00,,,0.00,Wunderground v.1.15,2013-07-25 04:50:00,
2013-07-25 02:00:00,68.5,65.8,30.00,SSE,158,2.0,22.0,91,0.00,,,0.00,Wunderground v.1.15,2013-07-25 05:00:00,
2013-07-25 02:10:00,68.2,65.8,30.00,South,181,2.0,22.0,92,0.00,,,0.00,Wunderground v.1.15,2013-07-25 05:10:00,
2013-07-25 02:20:00,68.0,65.6,30.01,SSW,198,2.0,22.0,92,0.00,,,0.00,Wunderground v.1.15,2013-07-25 05:20:00,
2013-07-25 02:30:00,67.9,65.5,30.01,South,188,2.0,2.0,92,0.00,,,0.00,Wunderground v.1.15,2013-07-25 05:30:00,
2013-07-25 02:40:00,67.6,65.5,30.01,SSW,193,1.0,22.0,93,0.00,,,0.00,Wunderground v.1.15,2013-07-25 05:40:00,
2013-07-25 02:50:00,67.3,65.2,30.02,South,186,1.0,22.0,93,0.00,,,0.00,Wunderground v.1.15,2013-07-25 05:50:00,
2013-07-25 03:00:00,67.1,65.0,30.02,SE,146,2.0,2.0,93,0.00,,,0.00,Wunderground v.1.15,2013-07-25 06:00:00,
2013-07-25 03:10:00,67.1,65.3,30.02,SSW,207,1.0,22.0,94,0.00,,,0.00,Wunderground v.1.15,2013-07-25 06:10:00,
2013-07-25 03:20:00,66.9,65.1,30.03,SSW,211,0.0,22.0,94,0.00,,,0.00,Wunderground v.1.15,2013-07-25 06:20:00,
2013-07-25 03:30:00,66.6,64.8,30.03,South,186,0.0,22.0,94,0.00,,,0.00,Wunderground v.1.15,2013-07-25 06:30:00,
2013-07-25 03:40:00,66.6,64.8,30.04,SSW,197,0.0,22.0,94,0.00,,,0.00,Wunderground v.1.15,2013-07-25 06:40:00,
2013-07-25 03:50:00,66.9,65.4,30.05,NE,34,0.0,22.0,95,0.00,,,0.00,Wunderground v.1.15,2013-07-25 06:50:00,
2013-07-25 04:00:00,66.4,64.0,30.05,SW,214,0.0,22.0,92,0.00,,,0.00,Wunderground v.1.15,2013-07-25 07:00:00,
2013-07-25 04:10:00,65.8,61.8,30.06,NE,38,1.0,1.0,87,0.00,,,0.00,Wunderground v.1.15,2013-07-25 07:10:00,
2013-07-25 04:20:00,65.6,61.0,30.07,NNW,335,0.0,22.0,85,0.00,,,0.00,Wunderground v.1.15,2013-07-25 07:20:00,
2013-07-25 04:30:00,65.4,60.4,30.07,North,359,0.0,22.0,84,0.00,,,0.00,Wunderground v.1.15,2013-07-25 07:30:00,
2013-07-25 04:40:00,65.3,60.7,30.08,NW,315,0.0,22.0,85,0.00,,,0.00,Wunderground v.1.15,2013-07-25 07:40:00,
2013-07-25 04:50:00,65.3,60.7,30.08,NW,319,0.0,22.0,85,0.00,,,0.00,Wunderground v.1.15,2013-07-25 07:50:00,
2013-07-25 05:00:00,65.0,60.0,30.08,NW,323,0.0,22.0,84,0.00,,,0.00,Wunderground v.1.15,2013-07-25 08:00:00,
2013-07-25 05:10:00,64.7,59.8,30.08,NW,324,1.0,22.0,84,0.00,,,0.00,Wunderground v.1.15,2013-07-25 08:10:00,
2013-07-25 05:20:00,64.4,59.1,30.09,SSW,198,0.0,22.0,83,0.00,,,0.00,Wunderground v.1.15,2013-07-25 08:20:00,
2013-07-25 05:30:00,64.3,59.4,30.10,NW,307,0.0,22.0,84,0.00,,,0.00,Wunderground v.1.15,2013-07-25 08:30:00,
2013-07-25 05:40:00,64.2,59.6,30.10,NNW,345,0.0,22.0,85,0.00,,,0.00,Wunderground v.1.15,2013-07-25 08:40:00,
2013-07-25 05:50:00,64.0,59.4,30.11,NW,305,0.0,22.0,85,0.00,,,0.00,Wunderground v.1.15,2013-07-25 08:50:00,
2013-07-25 06:00:00,63.6,59.3,30.11,SW,214,0.0,22.0,86,0.00,,,0.00,Wunderground v.1.15,2013-07-25 09:00:00,
2013-07-25 06:10:00,63.1,58.5,30.11,WSW,250,0.0,22.0,85,0.00,,,0.00,Wunderground v.1.15,2013-07-25 09:10:00,
2013-07-25 06:20:00,62.8,58.9,30.11,SSE,149,0.0,22.0,87,0.00,,,0.00,Wunderground v.1.15,2013-07-25 09:20:00,
2013-07-25 06:30:00,62.7,59.1,30.12,East,90,0.0,22.0,88,0.00,,,0.00,Wunderground v.1.15,2013-07-25 09:30:00,
2013-07-25 06:40:00,63.0,59.1,30.12,WNW,302,0.0,22.0,87,0.00,,,0.00,Wunderground v.1.15,2013-07-25 09:40:00,
2013-07-25 06:50:00,63.2,59.3,30.13,NNE,30,0.0,22.0,87,0.00,,,0.00,Wunderground v.1.15,2013-07-25 09:50:00,
2013-07-25 07:00:00,63.9,60.0,30.11,SSW,198,0.0,22.0,87,0.00,,,0.00,Wunderground v.1.15,2013-07-25 10:00:00,
2013-07-25 07:10:00,64.1,59.5,30.14,ENE,78,1.0,22.0,85,0.00,,,0.00,Wunderground v.1.15,2013-07-25 10:10:00,
2013-07-25 07:20:00,63.9,59.6,30.15,North,360,0.0,22.0,86,0.00,,,0.00,Wunderground v.1.15,2013-07-25 10:20:00,
2013-07-25 07:30:00,64.0,59.7,30.16,WNW,284,0.0,22.0,86,0.00,,,0.00,Wunderground v.1.15,2013-07-25 10:30:00,
2013-07-25 07:40:00,64.1,59.8,30.16,ESE,107,0.0,22.0,86,0.00,,,0.00,Wunderground v.1.15,2013-07-25 10:40:00,
2013-07-25 07:50:00,64.0,59.7,30.17,NNW,347,0.0,22.0,86,0.00,,,0.00,Wunderground v.1.15,2013-07-25 10:50:00,
2013-07-25 08:00:00,64.2,59.9,30.14,North,4,0.0,22.0,86,0.00,,,0.00,Wunderground v.1.15,2013-07-25 11:00:00,
2013-07-25 08:10:00,64.6,60.3,30.17,NE,49,0.0,22.0,86,0.00,,,0.00,Wunderground v.1.15,2013-07-25 11:10:00,
2013-07-25 08:20:00,64.5,59.6,30.18,NNW,333,1.0,22.0,84,0.00,,,0.00,Wunderground v.1.15,2013-07-25 11:20:00,
2013-07-25 08:30:00,64.7,59.8,30.18,NNW,328,0.0,22.0,84,0.00,,,0.00,Wunderground v.1.15,2013-07-25 11:30:00,
2013-07-25 08:40:00,64.7,59.4,30.18,WSW,256,0.0,22.0,83,0.00,,,0.00,Wunderground v.1.15,2013-07-25 11:40:00,
2013-07-25 08:50:00,64.2,59.3,30.15,West,281,1.0,1.0,84,0.00,,,0.00,Wunderground v.1.15,2013-07-25 11:50:00,
2013-07-25 09:00:00,64.1,59.2,30.18,NW,319,0.0,22.0,84,0.00,,,0.00,Wunderground v.1.15,2013-07-25 12:00:00,
2013-07-25 09:10:00,64.3,59.7,30.18,NW,320,0.0,22.0,85,0.00,,,0.00,Wunderground v.1.15,2013-07-25 12:10:00,
2013-07-25 09:20:00,64.6,59.7,30.19,NNE,25,1.0,1.0,84,0.00,,,0.00,Wunderground v.1.15,2013-07-25 12:20:00,
2013-07-25 09:30:00,64.9,59.6,30.19,West,270,0.0,22.0,83,0.00,,,0.00,Wunderground v.1.15,2013-07-25 12:30:00,
2013-07-25 09:40:00,65.0,60.0,30.20,West,266,0.0,22.0,84,0.00,,,0.00,Wunderground v.1.15,2013-07-25 12:40:00,
2013-07-25 09:50:00,64.6,59.7,30.20,WNW,302,1.0,1.0,84,0.00,,,0.00,Wunderground v.1.15,2013-07-25 12:50:00,
2013-07-25 10:00:00,64.3,59.4,30.20,WSW,255,1.0,1.0,84,0.00,,,0.00,Wunderground v.1.15,2013-07-25 13:00:00,
2013-07-25 10:10:00,64.0,59.1,30.20,WNW,294,1.0,1.0,84,0.00,,,0.00,Wunderground v.1.15,2013-07-25 13:10:00,
2013-07-25 10:20:00,63.9,59.3,30.20,NW,322,1.0,1.0,85,0.00,,,0.00,Wunderground v.1.15,2013-07-25 13:20:00,
2013-07-25 10:30:00,63.8,59.2,30.21,NNW,347,1.0,1.0,85,0.00,,,0.00,Wunderground v.1.15,2013-07-25 13:30:00,
2013-07-25 10:40:00,63.7,59.1,30.18,NW,319,0.0,22.0,85,0.00,,,0.00,Wunderground v.1.15,2013-07-25 13:40:00,
2013-07-25 10:50:00,63.7,59.1,30.22,NW,315,1.0,22.0,85,0.00,,,0.00,Wunderground v.1.15,2013-07-25 13:50:00,
2013-07-25 11:00:00,63.6,59.0,30.22,NW,311,1.0,1.0,85,0.00,,,0.00,Wunderground v.1.15,2013-07-25 14:00:00,
2013-07-25 11:10:00,63.9,59.6,30.19,NW,314,0.0,22.0,86,0.00,,,0.00,Wunderground v.1.15,2013-07-25 14:10:00,
2013-07-25 11:20:00,64.1,59.5,30.22,WNW,291,1.0,22.0,85,0.00,,,0.00,Wunderground v.1.15,2013-07-25 14:20:00,
2013-07-25 11:30:00,64.5,59.9,30.22,North,354,1.0,1.0,85,0.00,,,0.00,Wunderground v.1.15,2013-07-25 14:30:00,
2013-07-25 11:40:00,64.9,60.3,30.22,South,172,1.0,22.0,85,0.00,,,0.00,Wunderground v.1.15,2013-07-25 14:40:00,
2013-07-25 11:50:00,65.4,61.1,30.22,NNW,329,1.0,1.0,86,0.00,,,0.00,Wunderground v.1.15,2013-07-25 14:50:00,
2013-07-25 12:00:00,66.0,61.0,30.22,WNW,291,1.0,22.0,84,0.00,,,0.00,Wunderground v.1.15,2013-07-25 15:00:00,
2013-07-25 12:10:00,66.9,61.9,30.22,WNW,295,1.0,22.0,84,0.00,,,0.00,Wunderground v.1.15,2013-07-25 15:10:00,
2013-07-25 12:20:00,68.2,62.1,30.23,NW,323,1.0,22.0,81,0.00,,,0.00,Wunderground v.1.15,2013-07-25 15:20:00,
2013-07-25 12:30:00,67.9,61.5,30.23,WNW,293,1.0,22.0,80,0.00,,,0.00,Wunderground v.1.15,2013-07-25 15:30:00,
2013-07-25 12:40:00,66.8,60.4,30.24,WNW,294,1.0,1.0,80,0.00,,,0.00,Wunderground v.1.15,2013-07-25 15:40:00,
2013-07-25 12:50:00,66.0,60.0,30.24,NW,304,1.0,1.0,81,0.00,,,0.00,Wunderground v.1.15,2013-07-25 15:50:00,
2013-07-25 13:00:00,65.6,60.3,30.25,WSW,255,1.0,22.0,83,0.00,,,0.00,Wunderground v.1.15,2013-07-25 16:00:00,
2013-07-25 13:10:00,65.8,60.8,30.25,West,276,1.0,1.0,84,0.00,,,0.00,Wunderground v.1.15,2013-07-25 16:10:00,
2013-07-25 13:20:00,65.4,60.4,30.25,WNW,294,1.0,22.0,84,0.00,,,0.00,Wunderground v.1.15,2013-07-25 16:20:00,
2013-07-25 13:30:00,65.7,60.7,30.25,WNW,300,1.0,22.0,84,0.00,,,0.00,Wunderground v.1.15,2013-07-25 16:30:00,
2013-07-25 13:40:00,66.4,61.4,30.22,WNW,285,1.0,22.0,84,0.00,,,0.00,Wunderground v.1.15,2013-07-25 16:40:00,
2013-07-25 13:50:00,66.7,61.0,30.25,WSW,257,1.0,22.0,82,0.00,,,0.00,Wunderground v.1.15,2013-07-25 16:50:00,
2013-07-25 14:00:00,65.8,60.2,30.26,NW,311,1.0,1.0,82,0.00,,,0.00,Wunderground v.1.15,2013-07-25 17:00:00,
2013-07-25 14:10:00,66.4,61.1,30.25,WNW,287,1.0,22.0,83,0.00,,,0.00,Wunderground v.1.15,2013-07-25 17:10:00,
2013-07-25 14:20:00,66.5,61.5,30.25,NW,308,1.0,22.0,84,0.00,,,0.00,Wunderground v.1.15,2013-07-25 17:20:00,
2013-07-25 14:30:00,66.8,61.8,30.23,WNW,283,1.0,22.0,84,0.00,,,0.00,Wunderground v.1.15,2013-07-25 17:30:00,
2013-07-25 14:40:00,66.6,60.9,30.26,WNW,289,1.0,1.0,82,0.00,,,0.00,Wunderground v.1.15,2013-07-25 17:40:00,
2013-07-25 14:50:00,65.8,60.5,30.26,NW,314,1.0,22.0,83,0.00,,,0.00,Wunderground v.1.15,2013-07-25 17:50:00,
2013-07-25 15:00:00,65.6,60.3,30.26,West,271,1.0,1.0,83,0.00,,,0.00,Wunderground v.1.15,2013-07-25 18:00:00,
2013-07-25 15:10:00,65.5,60.5,30.27,SW,225,0.0,22.0,84,0.00,,,0.00,Wunderground v.1.15,2013-07-25 18:10:00,
2013-07-25 15:20:00,65.4,60.4,30.27,WSW,253,0.0,22.0,84,0.00,,,0.00,Wunderground v.1.15,2013-07-25 18:20:00,
2013-07-25 15:30:00,65.5,60.9,30.27,West,269,0.0,22.0,85,0.00,,,0.00,Wunderground v.1.15,2013-07-25 18:30:00,
2013-07-25 15:40:00,65.2,60.2,30.27,WNW,294,0.0,22.0,84,0.00,,,0.00,Wunderground v.1.15,2013-07-25 18:40:00,
2013-07-25 15:50:00,65.4,61.1,30.27,WSW,251,0.0,22.0,86,0.00,,,0.00,Wunderground v.1.15,2013-07-25 18:50:00,
2013-07-25 16:00:00,65.3,60.7,30.27,SSW,203,0.0,22.0,85,0.00,,,0.00,Wunderground v.1.15,2013-07-25 19:00:00,
2013-07-25 16:10:00,65.3,61.0,30.28,East,88,0.0,22.0,86,0.00,,,0.00,Wunderground v.1.15,2013-07-25 19:10:00,
2013-07-25 16:20:00,65.0,60.0,30.28,ENE,65,0.0,22.0,84,0.00,,,0.00,Wunderground v.1.15,2013-07-25 19:20:00,
2013-07-25 16:30:00,65.0,60.7,30.26,South,174,0.0,22.0,86,0.00,,,0.00,Wunderground v.1.15,2013-07-25 19:30:00,
2013-07-25 16:40:00,64.9,59.9,30.29,East,82,0.0,22.0,84,0.00,,,0.00,Wunderground v.1.15,2013-07-25 19:40:00,
2013-07-25 16:50:00,64.7,60.1,30.29,ENE,74,0.0,22.0,85,0.00,,,0.00,Wunderground v.1.15,2013-07-25 19:50:00,
2013-07-25 17:00:00,64.5,60.2,30.29,East,89,1.0,1.0,86,0.00,,,0.00,Wunderground v.1.15,2013-07-25 20:00:00,
2013-07-25 17:10:00,64.3,60.3,30.30,SSE,162,0.0,22.0,87,0.00,,,0.00,Wunderground v.1.15,2013-07-25 20:10:00,
2013-07-25 17:20:00,64.4,60.8,30.29,ENE,74,0.0,22.0,88,0.00,,,0.00,Wunderground v.1.15,2013-07-25 20:20:00,
2013-07-25 17:30:00,64.6,60.6,30.30,East,101,0.0,22.0,87,0.00,,,0.00,Wunderground v.1.15,2013-07-25 20:30:00,
2013-07-25 17:40:00,64.6,60.3,30.30,NNE,12,0.0,22.0,86,0.00,,,0.00,Wunderground v.1.15,2013-07-25 20:40:00,
2013-07-25 17:50:00,64.8,60.8,30.29,WSW,240,0.0,22.0,87,0.00,,,0.00,Wunderground v.1.15,2013-07-25 20:50:00,
2013-07-25 18:00:00,65.5,61.5,30.26,West,262,0.0,22.0,87,0.00,,,0.00,Wunderground v.1.15,2013-07-25 21:00:00,
2013-07-25 18:10:00,65.7,61.1,30.30,SW,229,0.0,22.0,85,0.00,,,0.00,Wunderground v.1.15,2013-07-25 21:10:00,
2013-07-25 18:20:00,65.8,60.8,30.30,NE,37,0.0,22.0,84,0.00,,,0.00,Wunderground v.1.15,2013-07-25 21:20:00,
2013-07-25 18:30:00,65.4,60.8,30.30,WNW,287,0.0,22.0,85,0.00,,,0.00,Wunderground v.1.15,2013-07-25 21:30:00,
2013-07-25 18:40:00,65.5,61.2,30.30,WSW,253,0.0,22.0,86,0.00,,,0.00,Wunderground v.1.15,2013-07-25 21:40:00,
2013-07-25 18:50:00,65.2,60.6,30.31,SW,218,0.0,22.0,85,0.00,,,0.00,Wunderground v.1.15,2013-07-25 21:50:00,
2013-07-25 19:00:00,65.1,60.5,30.31,West,278,0.0,22.0,85,0.00,,,0.00,Wunderground v.1.15,2013-07-25 22:00:00,
2013-07-25 19:10:00,64.6,60.3,30.29,SSW,212,0.0,22.0,86,0.00,,,0.00,Wunderground v.1.15,2013-07-25 22:10:00,
2013-07-25 19:20:00,64.2,59.9,30.31,NE,34,0.0,22.0,86,0.00,,,0.00,Wunderground v.1.15,2013-07-25 22:20:00,
2013-07-25 19:30:00,64.0,59.7,30.31,East,86,0.0,22.0,86,0.00,,,0.00,Wunderground v.1.15,2013-07-25 22:30:00,
2013-07-25 19:40:00,63.8,59.9,30.31,East,91,0.0,22.0,87,0.00,,,0.00,Wunderground v.1.15,2013-07-25 22:40:00,
2013-07-25 19:50:00,63.7,59.8,30.32,West,262,0.0,22.0,87,0.00,,,0.00,Wunderground v.1.15,2013-07-25 22:50:00,
2013-07-25 20:00:00,63.6,59.7,30.32,SE,126,0.0,22.0,87,0.00,,,0.00,Wunderground v.1.15,2013-07-25 23:00:00,
2013-07-25 20:10:00,63.5,59.6,30.32,West,276,0.0,22.0,87,0.00,,,0.00,Wunderground v.1.15,2013-07-25 23:10:00,
2013-07-25 20:20:00,63.4,59.8,30.32,SSE,159,0.0,22.0,88,0.00,,,0.00,Wunderground v.1.15,2013-07-25 23:20:00,
2013-07-25 20:30:00,63.3,59.7,30.32,SW,236,0.0,22.0,88,0.00,,,0.00,Wunderground v.1.15,2013-07-25 23:30:00,
2013-07-25 20:40:00,63.2,59.6,30.33,East,98,1.0,22.0,88,0.00,,,0.00,Wunderground v.1.15,2013-07-25 23:40:00,
2013-07-25 20:50:00,63.0,59.7,30.33,East,98,1.0,22.0,89,0.00,,,0.00,Wunderground v.1.15,2013-07-25 23:50:00,
2013-07-25 21:00:00,63.0,59.7,30.33,East,94,1.0,22.0,89,0.00,,,0.00,Wunderground v.1.15,2013-07-26 00:00:00,
2013-07-25 21:10:00,62.9,59.6,30.34,East,84,1.0,22.0,89,0.00,,,0.00,Wunderground v.1.15,2013-07-26 00:10:00,
2013-07-25 21:20:00,62.9,59.9,30.34,ENE,72,1.0,1.0,90,0.00,,,0.00,Wunderground v.1.15,2013-07-26 00:20:00,
2013-07-25 21:30:00,62.8,59.8,30.35,East,84,1.0,22.0,90,0.00,,,0.00,Wunderground v.1.15,2013-07-26 00:30:00,
2013-07-25 21:40:00,62.7,59.7,30.35,ENE,76,2.0,2.0,90,0.00,,,0.00,Wunderground v.1.15,2013-07-26 00:40:00,
2013-07-25 21:50:00,62.7,59.7,30.35,East,94,0.0,22.0,90,0.00,,,0.00,Wunderground v.1.15,2013-07-26 00:50:00,
2013-07-25 22:00:00,62.6,59.6,30.33,East,79,0.0,22.0,90,0.00,,,0.00,Wunderground v.1.15,2013-07-26 01:00:00,
2013-07-25 22:10:00,62.6,59.9,30.36,East,101,0.0,22.0,91,0.00,,,0.00,Wunderground v.1.15,2013-07-26 01:10:00,
2013-07-25 22:20:00,62.5,59.8,30.35,East,98,1.0,22.0,91,0.00,,,0.00,Wunderground v.1.15,2013-07-26 01:20:00,
2013-07-25 22:30:00,62.4,59.7,30.35,ENE,78,1.0,1.0,91,0.00,,,0.00,Wunderground v.1.15,2013-07-26 01:30:00,
2013-07-25 22:40:00,62.4,59.7,30.36,ENE,72,1.0,22.0,91,0.00,,,0.00,Wunderground v.1.15,2013-07-26 01:40:00,
2013-07-25 22:50:00,62.4,59.7,30.36,ENE,70,1.0,1.0,91,0.00,,,0.00,Wunderground v.1.15,2013-07-26 01:50:00,
2013-07-25 23:00:00,62.3,59.6,30.36,East,94,1.0,1.0,91,0.00,,,0.00,Wunderground v.1.15,2013-07-26 02:00:00,
2013-07-25 23:10:00,62.3,59.6,30.36,East,86,0.0,22.0,91,0.00,,,0.00,Wunderground v.1.15,2013-07-26 02:10:00,
2013-07-25 23:20:00,62.2,59.5,30.37,ESE,102,0.0,22.0,91,0.00,,,0.00,Wunderground v.1.15,2013-07-26 02:20:00,
2013-07-25 23:30:00,62.1,59.4,30.37,ENE,67,1.0,22.0,91,0.00,,,0.00,Wunderground v.1.15,2013-07-26 02:30:00,
2013-07-25 23:40:00,62.1,59.4,30.37,East,92,0.0,22.0,91,0.00,,,0.00,Wunderground v.1.15,2013-07-26 02:40:00,
2013-07-25 23:50:00,62.1,59.7,30.37,East,90,0.0,22.0,92,0.00,,,0.00,Wunderground v.1.15,2013-07-26 02:50:00,